Location: Coopersdale
(40.3556°N, 78.9372°W)
Time: 01:52:48
(UTC+00:00)

Transit 4A - Pass Details

Date: 26 January 2021
Orbit: 867 x 978 km, 66.8° (Epoch: 07 March)

Event Time Altitude Azimuth Distance (km) Brightness Sun altitude
Rises 23:05:23 0° 194° (SSW) 3,651 11.5 -7.6°
Reaches altitude 10° 23:07:58 10° 191° (S) 2,713 10.7 -8.1°
Maximum altitude 23:14:11 58° 114° (ESE) 1,128 8.1 -9.2°
Drops below altitude 10° 23:20:26 10° 37° (NE) 2,722 9.9 -10.4°
Enters shadow 23:21:50 - 35° (NE) 3,229 10.3 -10.6°
Sets 23:23:01 0° 33° (NNE) 3,664 - -10.8°
